Location: Santa Fe
(35.6870°N, 105.9370°W)
Time: 05:27:58
(UTC-07:00)

Amateur Radio Satellites - All Passes

Search period start: 07 December 2016 04:57
Search period end: 08 December 2016 04:57
Location: Santa Fe, 35.6870°N, 105.9370°W

Satellite Date Start Highest point End Downlink Frequencies (MHz)
Time Altitude Azimuth
BEESAT 3 07 Dec 04:58:39 05:02:20 41° 303° (WNW) 05:06:04 437.485
BRITE-PL 07 Dec 05:05:55 05:11:25 68° 100° (E) 05:17:05 437.365/2234.400
PHONESAT 2.4 07 Dec 05:06:51 05:09:15 32° 209° (SSW) 05:11:38 2401.200-2431.200
CUTE-I 07 Dec 05:08:20 05:10:50 13° 92° (E) 05:13:19 437.470
HORYU 2 07 Dec 05:09:46 05:14:04 49° 100° (E) 05:18:19 437.375
YUBILEINY 07 Dec 05:19:57 05:28:02 38° 75° (ENE) 05:36:03 435.215
RS-15 07 Dec 05:22:06 05:30:28 24° 100° (E) 05:39:03 29.354- 29.394
CUBESAT XI-V 07 Dec 05:23:50 05:27:03 19° 266° (W) 05:30:16 437.345
LilacSat-2 07 Dec 05:24:44 05:27:14 17° 94° (E) 05:29:44 437.200
NOAA 15 07 Dec 05:25:53 05:30:03 23° 95° (E) 05:34:11 137.62
NOAA 18 07 Dec 05:27:41 05:30:00 13° 92° (E) 05:32:19 137.9125
BEESAT 2 07 Dec 05:30:16 05:34:00 42° 303° (WNW) 05:37:48 435.950
Cubesat XI-IV 07 Dec 05:33:11 05:37:28 24° 95° (E) 05:41:43 437.490
SO-50 07 Dec 05:43:29 05:47:23 29° 248° (WSW) 05:51:13 436.795
Cosmos 2504 07 Dec 05:43:42 05:50:38 26° 70° (ENE) 05:57:14 435.465 / 435.565
Cosmos 2491 07 Dec 05:45:21 05:52:43 31° 85° (E) 06:00:01 435.465 / 435.565
STRAND 1 07 Dec 06:13:23 06:18:17 47° 72° (ENE) 06:23:12 437.568
GOMX 1 07 Dec 06:14:02 06:19:28 63° 286° (WNW) 06:24:50 467.674
DOVE 4 07 Dec 06:18:28 06:23:43 62° 100° (E) 06:28:44 437.250
AIST 2 07 Dec 06:31:52 06:34:26 16° 109° (ESE) 06:37:00 435.215
AO-7 07 Dec 06:33:02 06:34:05 10° 313° (NW) 06:35:09 29.400- 29.500
AIST 1 07 Dec 06:40:50 06:45:14 65° 82° (E) 06:49:35
CUTE-I 07 Dec 06:45:59 06:51:16 64° 286° (WNW) 06:56:30 437.470
BRITE-PL 07 Dec 06:46:13 06:49:19 16° 295° (WNW) 06:52:29 437.365/2234.400
HORYU 2 07 Dec 06:47:59 06:50:09 14° 295° (WNW) 06:52:18 437.375
LilacSat-2 07 Dec 06:58:22 07:01:30 25° 288° (WNW) 07:04:37 437.200
NOAA 15 07 Dec 07:05:02 07:09:52 37° 290° (WNW) 07:14:41 137.62
NOAA 18 07 Dec 07:05:36 07:11:07 71° 286° (WNW) 07:16:35 137.9125
Cubesat XI-IV 07 Dec 07:12:43 07:17:33 36° 290° (WNW) 07:22:22 437.490
CUTE 1.7 + AOD 2 07 Dec 07:14:01 07:17:44 30° 97° (E) 07:21:28 437.475
YUBILEINY 07 Dec 07:16:41 07:24:46 42° 272° (W) 07:32:51 435.215
CINEMA 3 07 Dec 07:28:01 07:32:48 81° 102° (ESE) 07:37:19 145.822/145.860
RS-15 07 Dec 07:29:39 07:41:22 83° 299° (WNW) 07:53:43 29.354- 29.394
HO-68 07 Dec 07:30:31 07:37:32 53° 101° (E) 07:44:30 435.675
CANX-2 07 Dec 07:31:57 07:36:08 60° 101° (E) 07:40:18 2200.000
AAUSAT CUBESAT 2 07 Dec 07:32:20 07:34:52 16° 94° (E) 07:37:24 437.432
Cosmos 2504 07 Dec 07:36:02 07:44:36 62° 269° (W) 07:52:37 435.465 / 435.565
CUBEBUG 2 07 Dec 07:38:08 07:41:29 22° 94° (E) 07:44:46 437.445
PRISM 07 Dec 07:40:31 07:43:32 21° 69° (ENE) 07:46:36 437.425
Cosmos 2491 07 Dec 07:40:38 07:49:05 50° 282° (WNW) 07:57:33 435.465 / 435.565
STRAND 1 07 Dec 07:54:18 07:57:39 17° 266° (W) 08:01:00 437.568
SEEDS 07 Dec 07:54:39 07:58:49 63° 101° (E) 08:02:57 437.485
Oscar 11 07 Dec 07:57:30 07:58:46 11° 92° (E) 08:00:01 145.826/435.025
DOVE 4 07 Dec 07:57:53 08:00:45 15° 296° (WNW) 08:03:34 437.250
COMPASS 1 07 Dec 08:02:38 08:06:41 50° 99° (E) 08:10:44 437.405
AIST 2 07 Dec 08:08:45 08:12:34 37° 304° (NW) 08:16:26 435.215
UWE-3 07 Dec 08:17:18 08:21:18 38° 98° (E) 08:25:11 435.000/436.395/437.385
UNISAT 6 07 Dec 08:36:42 08:40:13 21° 69° (ENE) 08:43:44 437.425
CUSAT 1 07 Dec 08:49:30 08:52:35 36° 98° (E) 08:55:12 437.405
CUTE 1.7 + AOD 2 07 Dec 08:50:22 08:53:20 19° 291° (WNW) 08:56:19 437.475
ZACube-1 07 Dec 08:55:10 08:59:22 66° 101° (E) 09:03:28 437.345
FUNcube-1 07 Dec 09:02:05 09:06:16 74° 100° (E) 09:10:22 145.935
TIGRISAT 07 Dec 09:05:16 09:09:39 40° 72° (ENE) 09:13:59 435.000
AAUSAT CUBESAT 2 07 Dec 09:06:39 09:10:24 34° 287° (WNW) 09:14:09 437.432
ANTELSAT 07 Dec 09:07:00 09:11:28 45° 73° (ENE) 09:15:54 437.575/2403.000
CANX-2 07 Dec 09:11:10 09:11:25 10° 295° (WNW) 09:11:40 2200.000
CUBEBUG 2 07 Dec 09:14:26 09:18:03 26° 290° (WNW) 09:21:36 437.445
PRISM 07 Dec 09:15:16 09:18:39 25° 263° (W) 09:22:05 437.425
HO-68 07 Dec 09:18:59 09:24:49 28° 297° (WNW) 09:30:39 435.675
Oscar 11 07 Dec 09:30:58 09:35:09 51° 285° (WNW) 09:39:19 145.826/435.025
COMPASS 1 07 Dec 09:40:17 09:41:45 12° 294° (WNW) 09:43:14 437.405
RS-15 07 Dec 09:46:25 09:56:01 27° 325° (NW) 10:05:55 29.354- 29.394
AO-85 07 Dec 09:47:08 09:49:49 17° 50° (NE) 09:52:27 145.980
DANDE 07 Dec 09:47:14 09:52:01 56° 98° (E) 09:55:38 436.750
DELFI C3 07 Dec 09:52:49 09:56:49 81° 281° (W) 10:00:48 145.870
UWE-3 07 Dec 09:54:58 09:57:23 15° 293° (WNW) 09:59:46 435.000/436.395/437.385
GONETS M04 07 Dec 09:59:54 10:04:16 14° 64° (ENE) 10:08:38
JUGNU 07 Dec 10:00:33 10:02:40 12° 167° (SSE) 10:04:47 437.505
HUMSAT D 07 Dec 10:10:43 10:14:49 79° 103° (ESE) 10:18:52 437.325/437.525
UNISAT 6 07 Dec 10:12:27 10:16:41 33° 263° (W) 10:20:55 437.425
JAS-2 07 Dec 10:23:02 10:29:27 59° 74° (ENE) 10:35:10 435.910
NANOSAT C BR1 07 Dec 10:31:24 10:35:17 35° 72° (ENE) 10:39:12 145.865
Cosmos 2499 07 Dec 10:32:03 10:38:59 27° 70° (ENE) 10:45:31 435.465 / 435.565
CUBEBUG 1 07 Dec 10:37:21 10:37:43 10° 91° (E) 10:38:03 437.445
QB50P2 07 Dec 10:38:23 10:42:32 51° 74° (ENE) 10:46:42 145.880/145.840
POLYITAN 1 07 Dec 10:38:54 10:43:02 48° 74° (ENE) 10:47:10 437.675
TIGRISAT 07 Dec 10:43:21 10:46:25 17° 266° (W) 10:49:29 435.000
ANTELSAT 07 Dec 10:45:33 10:48:19 15° 267° (W) 10:51:05 437.575/2403.000
PCSat 07 Dec 10:50:33 10:55:55 73° 115° (ESE) 11:01:20 145.827
QB50P1 07 Dec 10:51:19 10:55:34 68° 75° (ENE) 10:59:50 145.935-145.965
DUCHIFAT 1 07 Dec 10:52:29 10:56:40 59° 75° (ENE) 11:00:53 145.980
POPSAT HIP 1 07 Dec 11:13:00 11:17:15 66° 259° (WSW) 11:21:32 437.405
SPROUT 07 Dec 11:13:21 11:14:31 11° 92° (E) 11:15:39 437.525
AO-85 07 Dec 11:26:46 11:30:17 32° 247° (WSW) 11:33:46 145.980
BUGSAT 1 07 Dec 11:43:17 11:47:31 87° 72° (ENE) 11:51:47 437.445
JUGNU 07 Dec 11:47:14 11:50:55 17° 177° (S) 11:54:35 437.505
ESTCUBE 1 07 Dec 11:47:35 11:52:04 65° 284° (WNW) 11:56:32 437.505/2401.250
AISAT 07 Dec 11:47:52 11:52:14 50° 100° (E) 11:56:32 437.250
GONETS M04 07 Dec 11:53:37 12:02:23 84° 84° (E) 12:11:09
NANOSAT C BR1 07 Dec 12:08:26 12:11:05 16° 266° (W) 12:13:44 145.865
RS-15 07 Dec 12:08:54 12:15:03 15° 1° (N) 12:21:14 29.354- 29.394
CUBEBUG 1 07 Dec 12:09:55 12:14:19 60° 285° (WNW) 12:18:40 437.445
JAS-2 07 Dec 12:10:25 12:14:41 18° 265° (W) 12:18:40 435.910
50 SAT 07 Dec 12:14:22 12:17:56 88° 283° (WNW) 12:21:30 437.505
QB50P2 07 Dec 12:17:16 12:18:34 11° 268° (W) 12:19:53 145.880/145.840
POLYITAN 1 07 Dec 12:17:24 12:19:03 12° 268° (W) 12:20:41 437.675
Cosmos 2499 07 Dec 12:24:21 12:32:34 56° 270° (W) 12:40:10 435.465 / 435.565
VELOX 1 07 Dec 12:24:37 12:29:03 64° 285° (WNW) 12:33:26 145.980
Oscar 19 07 Dec 12:28:07 12:33:06 57° 73° (ENE) 12:38:09 437.125/150
TISAT 1 07 Dec 12:29:19 12:31:02 12° 92° (E) 12:32:45 437.305
DX 1 07 Dec 12:32:48 12:37:13 81° 104° (ESE) 12:41:35 434.975-435.025
PCSat 07 Dec 12:36:38 12:39:52 16° 312° (NW) 12:43:08 145.827
Gurwin Techsat 1B 07 Dec 12:36:45 12:41:31 35° 70° (ENE) 12:46:18 435.225
UKube-1 07 Dec 12:36:56 12:41:15 65° 101° (E) 12:45:33 .
SPROUT 07 Dec 12:46:32 12:50:42 51° 286° (WNW) 12:54:50 437.525
ITAMSAT 1 07 Dec 13:02:55 13:05:18 13° 63° (ENE) 13:07:43 435.822/435.867
BEESAT 3 07 Dec 13:18:03 13:21:49 40° 56° (ENE) 13:25:34 437.485
AISAT 07 Dec 13:26:00 13:28:13 14° 295° (WNW) 13:30:25 437.250
SRMSAT 07 Dec 13:29:22 13:32:38 15° 173° (S) 13:35:54 437.500
M-CUBED/EXP-1 PRIME 07 Dec 13:30:59 13:31:52 10° 94° (E) 13:32:44 437.505
JUGNU 07 Dec 13:35:55 13:39:10 15° 188° (S) 13:42:25 437.505
ITUPSAT 1 07 Dec 13:38:38 13:41:13 14° 93° (E) 13:43:47 437.325
AO-7 07 Dec 13:39:13 13:46:16 33° 61° (ENE) 13:53:22 29.400- 29.500
BEESAT 2 07 Dec 13:50:32 13:54:22 40° 57° (ENE) 13:58:10 435.950
GONETS M04 07 Dec 13:53:04 13:58:00 17° 281° (W) 14:02:58
TISAT 1 07 Dec 14:02:51 14:06:52 45° 287° (WNW) 14:10:52 437.305
Oscar 19 07 Dec 14:10:08 14:12:45 14° 268° (W) 14:15:23 437.125/150
UKube-1 07 Dec 14:16:27 14:16:41 10° 296° (WNW) 14:16:57 .
Gurwin Techsat 1B 07 Dec 14:17:08 14:21:28 25° 264° (W) 14:25:49 435.225
RS-15 07 Dec 14:23:38 14:33:53 29° 37° (NE) 14:43:54 29.354- 29.394
O/OREOS (USA 219) 07 Dec 14:35:11 14:38:27 20° 101° (E) 14:41:44 437.305
ITAMSAT 1 07 Dec 14:38:57 14:44:08 69° 258° (WSW) 14:49:21 435.822/435.867
SWISSCUBE 07 Dec 14:41:53 14:46:39 85° 102° (ESE) 14:51:23 437.505
BEESAT 07 Dec 14:45:44 14:50:31 83° 105° (ESE) 14:55:16 436.000
AUBIESAT-1 07 Dec 14:48:28 14:53:01 70° 106° (ESE) 14:57:18 437.475
BEESAT 3 07 Dec 14:56:58 14:59:04 14° 251° (WSW) 15:01:09 437.485
M-CUBED/EXP-1 PRIME 07 Dec 15:02:07 15:06:44 66° 290° (WNW) 15:11:08 437.505
ITUPSAT 1 07 Dec 15:14:41 15:19:16 49° 287° (WNW) 15:23:50 437.325
SRMSAT 07 Dec 15:17:28 15:21:02 16° 183° (S) 15:24:36 437.500
ISS 07 Dec 15:23:20 15:26:36 75° 319° (NW) 15:29:53 145.825
BEESAT 2 07 Dec 15:29:38 15:31:46 14° 251° (WSW) 15:33:54 435.950
AO-7 07 Dec 15:30:37 15:38:38 53° 258° (WSW) 15:46:43 29.400- 29.500
MOZHAYETS 4 07 Dec 15:37:10 15:41:43 71° 101° (ESE) 15:46:15
CUBESAT XI-V 07 Dec 15:47:10 15:48:23 11° 91° (E) 15:49:36 437.345
KKS-1 07 Dec 15:55:23 15:59:39 42° 99° (E) 16:03:53 437.445
STARS 07 Dec 15:57:29 16:00:41 19° 95° (E) 16:03:51 437.465
Cosmos 2491 07 Dec 16:01:47 16:04:28 12° 62° (ENE) 16:07:07 435.465 / 435.565
HORYU 2 07 Dec 16:04:53 16:08:51 32° 71° (ENE) 16:12:50 437.375
O/OREOS (USA 219) 07 Dec 16:13:29 16:17:36 33° 296° (WNW) 16:21:43 437.305
BRITE-PL 07 Dec 16:14:31 16:18:38 49° 74° (ENE) 16:23:03 437.365/2234.400
AUBIESAT-1 07 Dec 16:25:20 16:26:43 11° 302° (WNW) 16:28:06 437.475
CUTE-I 07 Dec 16:26:58 16:30:32 18° 65° (ENE) 16:34:06 437.470
AIST 2 07 Dec 16:32:17 16:36:27 55° 58° (ENE) 16:40:35 435.215
RS-15 07 Dec 16:35:51 16:48:17 89° 63° (ENE) 17:00:12 29.354- 29.394
NOAA 15 07 Dec 16:43:09 16:47:33 28° 68° (ENE) 16:51:58 137.62
NOAA 18 07 Dec 16:50:18 16:54:15 20° 64° (ENE) 16:58:13 137.9125
Cubesat XI-IV 07 Dec 16:52:10 16:56:51 31° 69° (ENE) 17:01:31 437.490
ISS 07 Dec 17:02:15 17:03:34 12° 336° (NNW) 17:04:54 145.825
SRMSAT 07 Dec 17:07:41 17:09:25 11° 193° (SSW) 17:11:07 437.500
GOMX 1 07 Dec 17:19:01 17:23:32 80° 258° (WSW) 17:28:27 467.674
DOVE 4 07 Dec 17:20:32 17:25:03 43° 72° (ENE) 17:29:49 437.250
CUBESAT XI-V 07 Dec 17:21:28 17:26:05 61° 285° (WNW) 17:30:42 437.345
STARS 07 Dec 17:33:08 17:37:02 31° 289° (WNW) 17:40:54 437.465
KKS-1 07 Dec 17:33:09 17:35:49 16° 294° (WNW) 17:38:29 437.445
LilacSat-2 07 Dec 17:36:21 17:40:12 85° 257° (WSW) 17:44:04 437.200
HORYU 2 07 Dec 17:42:07 17:45:24 20° 265° (W) 17:48:42 437.375
Cosmos 2491 07 Dec 17:54:10 18:02:54 72° 82° (E) 18:11:35 435.465 / 435.565
BRITE-PL 07 Dec 17:56:02 17:57:31 12° 270° (W) 17:59:02 437.365/2234.400
HO-68 07 Dec 17:56:40 18:02:36 29° 63° (ENE) 18:08:34 435.675
CUTE-I 07 Dec 18:04:54 18:10:07 52° 260° (W) 18:15:22 437.470
CUTE 1.7 + AOD 2 07 Dec 18:04:56 18:07:24 15° 68° (ENE) 18:09:53 437.475
AIST 2 07 Dec 18:13:04 18:14:24 11° 253° (WSW) 18:15:44 435.215
SO-50 07 Dec 18:15:36 18:18:32 16° 109° (ESE) 18:21:27 436.795
YUBILEINY 07 Dec 18:16:58 18:25:09 48° 89° (E) 18:33:23 435.215
Cosmos 2504 07 Dec 18:18:52 18:24:50 22° 81° (E) 18:31:01 435.465 / 435.565
CANX-2 07 Dec 18:22:02 18:25:38 28° 72° (ENE) 18:29:15 2200.000
NOAA 15 07 Dec 18:22:37 18:27:11 30° 263° (W) 18:31:47 137.62
CINEMA 3 07 Dec 18:25:42 18:30:28 52° 74° (ENE) 18:35:21 145.822/145.860
STRAND 1 07 Dec 18:27:39 18:31:21 20° 94° (E) 18:35:02 437.568
NOAA 18 07 Dec 18:29:09 18:34:29 49° 260° (W) 18:39:52 137.9125
Cubesat XI-IV 07 Dec 18:32:13 18:36:49 29° 263° (W) 18:41:28 437.490
CUBEBUG 2 07 Dec 18:33:47 18:36:33 16° 67° (ENE) 18:39:19 437.445
SEEDS 07 Dec 18:43:39 18:47:13 28° 72° (ENE) 18:50:48 437.485
RS-15 07 Dec 18:50:54 18:59:01 21° 261° (W) 19:07:00 29.354- 29.394
COMPASS 1 07 Dec 18:50:56 18:54:10 23° 70° (ENE) 18:57:24 437.405
DOVE 4 07 Dec 18:59:44 19:02:57 18° 269° (W) 19:06:15 437.250
AIST 1 07 Dec 19:06:56 19:11:00 43° 92° (E) 19:15:06
UWE-3 07 Dec 19:11:15 19:15:00 25° 70° (ENE) 19:18:43 435.000/436.395/437.385
CUSAT 1 07 Dec 19:22:02 19:25:18 22° 80° (E) 19:29:15 437.405
CUTE 1.7 + AOD 2 07 Dec 19:39:00 19:42:54 37° 262° (W) 19:46:49 437.475
PCSat 07 Dec 19:41:40 19:46:29 31° 56° (NE) 19:51:16 145.827
HO-68 07 Dec 19:43:06 19:49:57 49° 260° (W) 19:56:53 435.675
ZACube-1 07 Dec 19:47:38 19:51:48 36° 73° (ENE) 19:55:55 437.345
Cosmos 2491 07 Dec 19:52:55 19:58:45 20° 279° (W) 20:04:36 435.465 / 435.565
AAUSAT CUBESAT 2 07 Dec 19:53:08 19:57:14 80° 258° (WSW) 20:01:21 437.432
SO-50 07 Dec 19:53:58 19:58:36 49° 303° (WNW) 20:03:12 436.795
FUNcube-1 07 Dec 19:54:10 19:58:23 39° 73° (ENE) 20:02:34 145.935
CANX-2 07 Dec 19:58:25 20:01:28 19° 265° (W) 20:04:32 2200.000
CINEMA 3 07 Dec 20:05:03 20:07:52 15° 269° (W) 20:10:41 145.822/145.860
STRAND 1 07 Dec 20:05:53 20:10:37 40° 289° (WNW) 20:15:21 437.568
CUBEBUG 2 07 Dec 20:08:07 20:12:43 49° 261° (W) 20:17:19 437.445
Cosmos 2504 07 Dec 20:09:00 20:17:14 69° 278° (W) 20:26:03 435.465 / 435.565
YUBILEINY 07 Dec 20:14:30 20:22:05 33° 287° (WNW) 20:29:46 435.215
SEEDS 07 Dec 20:19:57 20:22:54 19° 266° (W) 20:25:52 437.485
Oscar 11 07 Dec 20:22:15 20:26:33 81° 76° (ENE) 20:30:52 145.826/435.025
COMPASS 1 07 Dec 20:26:16 20:29:35 23° 264° (W) 20:32:55 437.405
DANDE 07 Dec 20:26:55 20:29:18 20° 80° (E) 20:32:07 436.750
DELFI C3 07 Dec 20:35:33 20:39:07 35° 73° (ENE) 20:42:43 145.870
AIST 1 07 Dec 20:46:49 20:48:48 13° 288° (WNW) 20:50:49
UWE-3 07 Dec 20:47:17 20:51:17 28° 264° (W) 20:55:16 435.000/436.395/437.385
PRISM 07 Dec 20:58:37 21:02:40 49° 100° (E) 21:06:43 437.425
HUMSAT D 07 Dec 20:58:53 21:02:44 35° 73° (ENE) 21:06:33 437.325/437.525
CUSAT 1 07 Dec 21:03:34 21:07:03 26° 264° (W) 21:11:20 437.405
ANTELSAT 07 Dec 21:04:35 21:05:25 10° 91° (E) 21:06:14 437.575/2403.000
PCSat 07 Dec 21:25:03 21:29:48 32° 252° (WSW) 21:34:31 145.827
ZACube-1 07 Dec 21:25:04 21:28:08 18° 266° (W) 21:31:12 437.345
FUNcube-1 07 Dec 21:31:53 21:34:43 16° 267° (W) 21:37:32 145.935
ISS 07 Dec 21:53:43 21:56:47 33° 36° (NE) 21:59:48 145.825
UNISAT 6 07 Dec 22:06:44 22:11:04 64° 100° (E) 22:15:19 437.425
Cosmos 2504 07 Dec 22:09:52 22:12:24 11° 299° (WNW) 22:15:00 435.465 / 435.565
DANDE 07 Dec 22:10:22 22:11:51 13° 264° (W) 22:13:29 436.750
DELFI C3 07 Dec 22:12:07 22:14:02 13° 267° (W) 22:15:58 145.870
HUMSAT D 07 Dec 22:35:54 22:38:25 15° 266° (W) 22:40:55 437.325/437.525
PRISM 07 Dec 22:35:55 22:37:30 12° 295° (WNW) 22:39:05 437.425
TIGRISAT 07 Dec 22:36:09 22:40:27 61° 285° (WNW) 22:44:39 435.000
ANTELSAT 07 Dec 22:38:11 22:42:26 54° 286° (WNW) 22:46:37 437.575/2403.000
QB50P1 07 Dec 22:40:37 22:42:43 14° 93° (E) 22:44:50 145.935-145.965
DUCHIFAT 1 07 Dec 22:41:46 22:43:07 11° 92° (E) 22:44:28 145.980
AISAT 07 Dec 22:42:23 22:46:15 30° 71° (ENE) 22:50:09 437.250
ESTCUBE 1 07 Dec 22:43:49 22:48:16 79° 77° (ENE) 22:52:45 437.505/2401.250
50 SAT 07 Dec 22:47:19 22:50:02 21° 71° (ENE) 22:52:47 437.505
PHONESAT 2.4 07 Dec 22:56:31 22:59:05 43° 152° (SSE) 23:01:38 2401.200-2431.200
GONETS M04 07 Dec 22:58:07 23:03:32 18° 80° (E) 23:08:55
POPSAT HIP 1 07 Dec 23:01:13 23:04:39 24° 96° (E) 23:08:03 437.405
CUBEBUG 1 07 Dec 23:02:28 23:06:49 76° 76° (ENE) 23:11:12 437.445
Cosmos 2499 07 Dec 23:04:50 23:11:14 24° 81° (E) 23:17:49 435.465 / 435.565
VELOX 1 07 Dec 23:18:32 23:22:55 77° 77° (ENE) 23:27:22 145.980
JAS-2 07 Dec 23:19:38 23:24:50 63° 102° (ESE) 23:30:23 435.910
DX 1 07 Dec 23:25:14 23:29:23 46° 73° (ENE) 23:33:34 434.975-435.025
UKube-1 07 Dec 23:28:31 23:32:27 36° 72° (ENE) 23:36:25 .
BUGSAT 1 07 Dec 23:29:24 23:31:51 15° 93° (E) 23:34:18 437.445
ISS 07 Dec 23:30:37 23:33:06 20° 231° (SW) 23:35:36 145.825
SPROUT 07 Dec 23:36:26 23:40:43 79° 77° (ENE) 23:45:03 437.525
NANOSAT C BR1 07 Dec 23:53:44 23:57:58 81° 282° (WNW) 00:02:09 145.865
AO-85 07 Dec 23:59:18 00:01:51 14° 109° (ESE) 00:04:20 145.980
QB50P2 08 Dec 00:01:43 00:05:52 54° 285° (WNW) 00:09:58 145.880/145.840
POLYITAN 1 08 Dec 00:02:11 00:06:21 58° 285° (WNW) 00:10:27 437.675
QB50P1 08 Dec 00:14:40 00:18:40 41° 287° (WNW) 00:22:36 145.935-145.965
DUCHIFAT 1 08 Dec 00:14:59 00:19:03 48° 286° (WNW) 00:23:03 145.980
AISAT 08 Dec 00:19:27 00:22:43 20° 265° (W) 00:26:01 437.250
50 SAT 08 Dec 00:20:55 00:23:15 17° 265° (W) 00:25:37 437.505
PHONESAT 2.4 08 Dec 00:31:49 00:34:19 36° 348° (NNW) 00:36:48 2401.200-2431.200
POPSAT HIP 1 08 Dec 00:36:54 00:40:18 24° 290° (WNW) 00:43:39 437.405
Oscar 19 08 Dec 00:43:05 00:47:23 26° 96° (E) 00:51:38 437.125/150
ITUPSAT 1 08 Dec 00:43:22 00:45:35 13° 64° (ENE) 00:47:48 437.325
O/OREOS (USA 219) 08 Dec 00:47:16 00:50:54 24° 62° (ENE) 00:54:30 437.305
GONETS M04 08 Dec 00:50:32 00:59:15 78° 277° (W) 01:08:00
TISAT 1 08 Dec 00:50:49 00:55:04 87° 71° (ENE) 00:59:20 437.305
Cosmos 2499 08 Dec 00:55:03 01:03:29 66° 279° (W) 01:12:22 435.465 / 435.565
Gurwin Techsat 1B 08 Dec 00:56:47 01:00:12 17° 93° (E) 01:03:36 435.225
BUGSAT 1 08 Dec 01:03:31 01:07:19 35° 288° (WNW) 01:11:04 437.445
DX 1 08 Dec 01:03:48 01:05:47 13° 267° (W) 01:07:46 434.975-435.025
UKube-1 08 Dec 01:05:54 01:08:34 16° 266° (W) 01:11:16 .
JAS-2 08 Dec 01:06:56 01:09:28 14° 296° (WNW) 01:12:03 435.910
AUBIESAT-1 08 Dec 01:30:51 01:34:51 51° 69° (ENE) 01:39:08 437.475
AO-85 08 Dec 01:36:59 01:41:54 59° 301° (WNW) 01:46:29 145.980
M-CUBED/EXP-1 PRIME 08 Dec 01:44:53 01:48:57 86° 257° (WSW) 01:53:22 437.505
SWISSCUBE 08 Dec 01:45:09 01:49:54 70° 75° (ENE) 01:54:39 437.505
BEESAT 08 Dec 01:48:58 01:53:42 68° 75° (ENE) 01:58:27 436.000
PHONESAT 2.4 08 Dec 02:07:32 02:09:53 27° 5° (N) 02:12:13 2401.200-2431.200
ITUPSAT 1 08 Dec 02:18:10 02:22:52 59° 259° (W) 02:27:36 437.325
Oscar 19 08 Dec 02:22:03 02:26:40 33° 290° (WNW) 02:31:15 437.125/150
O/OREOS (USA 219) 08 Dec 02:26:28 02:30:13 27° 257° (WSW) 02:33:57 437.305
Gurwin Techsat 1B 08 Dec 02:35:15 02:40:23 50° 288° (WNW) 02:45:29 435.225
MOZHAYETS 4 08 Dec 02:35:56 02:40:19 47° 74° (ENE) 02:44:43
KKS-1 08 Dec 02:50:43 02:54:30 28° 70° (ENE) 02:58:18 437.445
STARS 08 Dec 02:52:29 02:54:31 13° 65° (ENE) 02:56:33 437.465
GONETS M04 08 Dec 02:53:52 02:57:31 13° 297° (WNW) 03:01:10
ITAMSAT 1 08 Dec 02:54:47 02:59:51 53° 101° (E) 03:04:53 435.822/435.867
Cosmos 2499 08 Dec 02:56:19 02:58:26 11° 300° (WNW) 03:00:35 435.465 / 435.565
BEESAT 3 08 Dec 03:07:17 03:09:07 13° 108° (ESE) 03:10:58 437.485
AUBIESAT-1 08 Dec 03:08:00 03:09:35 12° 265° (W) 03:11:12 437.475
BEESAT 08 Dec 03:31:37 03:31:52 10° 269° (W) 03:32:07 436.000
AO-7 08 Dec 03:35:05 03:43:25 66° 105° (ESE) 03:51:42 29.400- 29.500
BEESAT 2 08 Dec 03:41:00 03:43:05 14° 109° (ESE) 03:45:10 435.950
PHONESAT 2.4 08 Dec 03:42:40 03:45:18 78° 23° (NNE) 03:47:55 2401.200-2431.200
MOZHAYETS 4 08 Dec 04:15:18 04:17:41 14° 268° (W) 04:20:04
CUBESAT XI-V 08 Dec 04:21:28 04:26:03 89° 259° (W) 04:30:40 437.345
BRITE-PL 08 Dec 04:21:31 04:26:06 26° 95° (E) 04:30:45 437.365/2234.400
STARS 08 Dec 04:26:04 04:30:22 52° 260° (W) 04:34:43 437.465
KKS-1 08 Dec 04:27:28 04:31:00 23° 264° (W) 04:34:33 437.445
SO-50 08 Dec 04:28:02 04:32:32 64° 59° (ENE) 04:36:56 436.795
YUBILEINY 08 Dec 04:31:46 04:37:50 20° 68° (ENE) 04:43:52 435.215
ITAMSAT 1 08 Dec 04:35:38 04:38:51 17° 296° (WNW) 04:42:02 435.822/435.867
BEESAT 3 08 Dec 04:42:39 04:46:20 40° 303° (WNW) 04:50:04 437.485
